Погода Боковская

Погода Боковская : погода сейчас, прогноз погоды и архив. Всё, что Вы хотите узнать о погоде Боковская!

Хотите узнать прогноз погоды Боковская? Тогда Вам сюда: Погода Боковская

Поиск расширенной информации на нашем сайте:

Другие новости

Новости СМИ2

Главная страница сайта

Новости сайта

02.10.2013

Напоминаем, что на нашем новом сайте вы можете получить высокодетализированные прогнозы погоды по пунктам России, СНГ и мира (включающие важные для авиации метеовеличины, такие как направление и скорость ветра, видимость, явления погоды, количество и форма облачности, нижняя и верхняя граница облачности), а также ознакомиться с разнообразными материалами по авиационной метеорологии и подборкой полезных ссылок на эту тему.

Сайт Метеоцентр.Азия посвящён разработке технологий оптимизации авиаметеорологического обслуживания, включая проектирование и перспективное создание нескольких автоматизированных авиаметеорологических систем:
- система выпуска высокодетальных прогностических карт явлений погоды для нижнего воздушного пространства по России и ближнему зарубежью;
- система верификации прогнозов TAF (выпускаемых синоптиками официальных АМСГ РФ и ближнего зарубежья) и AUTOTAF (выпускаемых сайтом Метеоцентр.Азия) - выявление ошибок, онлайн-сопоставление с фактической погодой METAR, автоматическое внесение коррективов в прогнозы при резком отклонении фактической погоды от прогноза, подсчёт оправдываемости прогнозов по элементам и в целом;
- система обработки, анализа и отображения авиаметеорологической информации для применения провайдерами метеорологической информации.

Рекомендуем: Пермский центр сертификации услуги.

Погода Боковская - сегодня

Время (UTC), дата Ветер
(°,м/с) 
Видим.   Явления Облачность Т
(°С)
Тd
(°С)
f(%) Тe
(°С)
Pmin
(гПа)
dP
(гПа)
Po
(мм)
O2
(г/м3)
Тmin Tmax R s Состояние
почвы
06 17.02.17 280 (З) 20000 м    ясно 
-16.6 -18.6 85 -17  1031.8  0.6  765  330  -18.8         
09 17.02.17 210 (ЮЗ) 20000 м    ясно 
-7.6 -14.1 60 -9  1030.6  -0.9  764  318           
12 17.02.17 190 (Ю) 20000 м    3/0 верхняя 
[Ci]
-5.1 -12 58 -6  1028.9  -1.6  763  314           
15 17.02.17 140 (ЮВ) 20000 м    8/0 средняя, верхняя 
[Ac As|Ci]
-8.9 -12.8 73 -11  1027.8  -1.1  762  319    -5       
18 17.02.17 180 (Ю) 20000 м    9/0 средняя 
[As op]
-7.2 -11 74 -9  1026.4  -1.4  761  316           
21 17.02.17 180 (Ю) 20000 м    10/0 средняя 
[As op]
-6.8 -9.4 82 -8  1025.4  -1  760  315           
00 18.02.17 200 (Ю) 6-11{11}  20000 м    10/10 300 м 
[St]
-6.4 -9.5 79 -11  1023.3  -1.9  759  314           
03 18.02.17 210 (ЮЗ) 6-10{12}  20000 м  позёмок  10/3 600 м кучево-дожд., средняя 
[Cb cap|Ac As]
-5.7 -8.6 80 -10  1021.6  -1.7  757  313  -8.9      25  равномерный
сухой снег
100% 
06 18.02.17 210 (ЮЗ) 5{11}  20000 м    10/4 1000 м средняя 
[Sc diur, vesp|Ac As]
-3.9 -6.8 80 -8  1021.7  0.2  757  310           
09 18.02.17 190 (Ю) 20000 м    10/0 средняя 
[As op]
-1.3 -4.6 78 -3  1021.7  0.1  758  307           
12 18.02.17 240 (ЮЗ) 6-11{12}  20000 м    10/0 средняя 
[Ac As]
+0.8 -2.4 79 -3  1020.7  -0.9  757  304           
15 18.02.17 240 (ЮЗ) 6-10{11}  20000 м    10/0 средняя 
[Ac As]
+1.4 -1.8 79 -2  1020.7  757  304    +1.4       
18 18.02.17 230 (ЮЗ) 4{12}  20000 м    10/0 средняя 
[Ac As]
+0.7 -1.5 85 -2  1021  0.3  757  304           
21 18.02.17 230 (ЮЗ) 20000 м    10/0 средняя 
[Ac As]
+0.1 -1.5 89 -3  1021.5  0.4  757  305           
00 19.02.17 230 (ЮЗ) 4{10}  20000 м    10/0 средняя 
[Ac As]
-0.1 -2.1 86 -3  1021.9  0.4  758  306           
03 19.02.17 220 (ЮЗ) 20000 м    8/0 средняя 
[Ac trans]
-0.9 -3 86 -3  1022.3  0.4  758  307  -1.4      24  равномерный
мокрый или
старый снег
100% 
06 19.02.17 230 (ЮЗ) 20000 м    9/8 600 м средняя 
[Sc|Ac As]
+0.6 -1.8 84 -2  1023.7  1.4  759  305           
09 19.02.17 240 (ЮЗ) 20000 м    10/0 средняя 
[As op]
+2 -1 80 -1  1024.6  760  304           
12 19.02.17 230 (ЮЗ) 20000 м    10/0 средняя 
[As op]
+2.2 -0.6 82 1024.5  0.1  760  304           
15 19.02.17 230 (ЮЗ) 20000 м    10/0 средняя 
[As op]
+1.8 -0.5 85 1024.8  0.2  760  304    +2.3       
18 19.02.17 210 (ЮЗ) 20000 м    10/0 средняя 
[As op]
+1.7 -0.5 85 -1  1024.4  -0.3  760  304           
21 19.02.17 220 (ЮЗ) 4000 м  дымка  10/0 средняя 
[As op]
+1.5 -0.4 87 -1  1024  -0.4  759  304           
00 20.02.17 220 (ЮЗ) 4000 м  дымка  10/0 средняя 
[As op]
+1.2 -0.5 88 1023.3  -0.7  759  304           
03 20.02.17 230 (ЮЗ) 4000 м  дымка  10/0 средняя 
[As op]
+1.3 -0.5 88 -1  1023.1  -0.3  759  304  +1.1      24  равномерный
мокрый или
старый снег
100% 
06 20.02.17 220 (ЮЗ) 20000 м    10/0 средняя 
[As op]
+1.3 -0.9 85 1022.8  -0.2  758  304  +1         
Время (UTC), дата Ветер
(°,м/с) 
Видим.   Явления Облачность Т
(°С)
Тd
(°С)
f(%) Тe
(°С)
Pmin
(гПа)
dP
(гПа)
Po
(мм)
O2
(г/м3)
Тmin Tmax R s Состояние
почвы

Для получения пояснительной информации подведите курсор к названию столбца.

ПОГОДА Боковская - архив

Всё, что Вы хотите узнать о погоде Боковская - удобно и подробно!

Выберите нужную дату (начиная с 1 января 2015* года) и нажмите кнопку "Найти".
Будут отображены архивные сводки погоды по пункту Боковская, начиная с указанной даты.


Отображать данные в формате CSV (для использования в таблицах Excel)


Внимание! Наш архив погоды предназначен исключительно для личного некоммерческого использования в познавательных целях. Если Вам необходимы официальные справки о состоянии погоды (для производственных, юридических, коммерческих и т.п. целей), обращайтесь в органы Росгидромета.

*Примечание: данная дата относится к архиву по метеостанциям СССР (Россия, СНГ, Балтия).
Архив по метеостанциям Зарубежной Европы и Азии (кроме Китая) хранится 10 дней, по другим регионам земного шара (Китай, Африка, Америка, Австралия, Океания) - 1 день.

Боковская - район местоположения метеостанции


Название, широта, долгота, высота метеостанции:
Боковская 49.2°ш. 41.8°д. 91 м над ур. моря [Российская Федерация]

Дополнительная информация

В oтличие oт бoльшинства пoгoдных сайтoв мы публикуем пoдрoбную метеoинфoрмацию в детальнoм прoфессиoнальнoм фoрмате.

Характеристики температуры и влажнoсти вoздуха измеряются на высoте 2 м в тени вдали oт зданий и деревьев.
Скoрoсть ветра измеряется на высoте 10 м (на урoвне рoста челoвека скoрoсть ветра ниже в 1.5-2 раза). Если метеoстанция нахoдится в гoрoде или в лесу, тo скoрoсть ветра занижена на 2-4 м/с пo сравнению с oткрытым местoм. Скoрoсть ветра над акватoриями крупных рек и oзёр, а также на вершинах хoлмoв на 2-5 м/с выше, чем в oбычных услoвиях.
Атмoсфернoе давление в разных тoчках местнoсти мoжет значительнo oтличаться oт давления на метеoстанции, в зависимoсти oт услoвий рельефа (при пoдъёме на 10 м давление пoнижается примернo на 1 мм рт.ст.).